<?xml version="1.0"?>
<gpx xmlns="http://www.topografix.com/GPX/1/1" xmlns:xsi="http://www.w3.org/2001/XMLSchema-instance" version="1.1" creator="GPX RubyGem 1.0.0 -- http://dougfales.github.io/gpx/" xsi:schemaLocation="http://www.topografix.com/GPX/1/1 http://www.topografix.com/GPX/1/1/gpx.xsd">
  <metadata>
    <name/>
    <time>2026-05-08T15:03:05+00:00</time>
    <bound minlat="90.0" minlon="180.0" maxlat="-90.0" maxlon="-180.0"/>
  </metadata>
  <trk>
    <name/>
    <trkseg>
      <trkpt lat="47.615076" lon="14.360545">
        <time>1970-01-01T00:00:00+00:00</time>
        <ele>1027.0</ele>
      </trkpt>
      <trkpt lat="47.615192" lon="14.360657">
        <time>1970-01-01T00:00:00+00:00</time>
        <ele>1028.0</ele>
      </trkpt>
      <trkpt lat="47.615336" lon="14.360845">
        <time>1970-01-01T00:00:00+00:00</time>
        <ele>1027.0</ele>
      </trkpt>
      <trkpt lat="47.615789" lon="14.36146">
        <time>1970-01-01T00:00:00+00:00</time>
        <ele>1034.0</ele>
      </trkpt>
      <trkpt lat="47.615976" lon="14.36157">
        <time>1970-01-01T00:00:00+00:00</time>
        <ele>1038.0</ele>
      </trkpt>
      <trkpt lat="47.616136" lon="14.361572">
        <time>1970-01-01T00:00:00+00:00</time>
        <ele>1041.0</ele>
      </trkpt>
      <trkpt lat="47.61686" lon="14.361287">
        <time>1970-01-01T00:00:00+00:00</time>
        <ele>1049.0</ele>
      </trkpt>
      <trkpt lat="47.617209" lon="14.361267">
        <time>1970-01-01T00:00:00+00:00</time>
        <ele>1052.0</ele>
      </trkpt>
      <trkpt lat="47.618423" lon="14.360786">
        <time>1970-01-01T00:00:00+00:00</time>
        <ele>1075.0</ele>
      </trkpt>
      <trkpt lat="47.618879" lon="14.360697">
        <time>1970-01-01T00:00:00+00:00</time>
        <ele>1078.0</ele>
      </trkpt>
      <trkpt lat="47.619051" lon="14.36053">
        <time>1970-01-01T00:00:00+00:00</time>
        <ele>1083.0</ele>
      </trkpt>
      <trkpt lat="47.619223" lon="14.360228">
        <time>1970-01-01T00:00:00+00:00</time>
        <ele>1089.0</ele>
      </trkpt>
      <trkpt lat="47.619338" lon="14.359788">
        <time>1970-01-01T00:00:00+00:00</time>
        <ele>1097.0</ele>
      </trkpt>
      <trkpt lat="47.619386" lon="14.35976">
        <time>1970-01-01T00:00:00+00:00</time>
        <ele>1098.0</ele>
      </trkpt>
      <trkpt lat="47.619429" lon="14.359773">
        <time>1970-01-01T00:00:00+00:00</time>
        <ele>1098.0</ele>
      </trkpt>
      <trkpt lat="47.619467" lon="14.359748">
        <time>1970-01-01T00:00:00+00:00</time>
        <ele>1099.0</ele>
      </trkpt>
      <trkpt lat="47.619505" lon="14.359765">
        <time>1970-01-01T00:00:00+00:00</time>
        <ele>1098.0</ele>
      </trkpt>
      <trkpt lat="47.619614" lon="14.359988">
        <time>1970-01-01T00:00:00+00:00</time>
        <ele>1095.0</ele>
      </trkpt>
      <trkpt lat="47.619697" lon="14.360048">
        <time>1970-01-01T00:00:00+00:00</time>
        <ele>1096.0</ele>
      </trkpt>
      <trkpt lat="47.619953" lon="14.360073">
        <time>1970-01-01T00:00:00+00:00</time>
        <ele>1105.0</ele>
      </trkpt>
      <trkpt lat="47.620028" lon="14.360106">
        <time>1970-01-01T00:00:00+00:00</time>
        <ele>1106.0</ele>
      </trkpt>
      <trkpt lat="47.620164" lon="14.360264">
        <time>1970-01-01T00:00:00+00:00</time>
        <ele>1108.0</ele>
      </trkpt>
      <trkpt lat="47.620221" lon="14.360421">
        <time>1970-01-01T00:00:00+00:00</time>
        <ele>1109.0</ele>
      </trkpt>
      <trkpt lat="47.620257" lon="14.360479">
        <time>1970-01-01T00:00:00+00:00</time>
        <ele>1109.0</ele>
      </trkpt>
      <trkpt lat="47.620376" lon="14.360521">
        <time>1970-01-01T00:00:00+00:00</time>
        <ele>1112.0</ele>
      </trkpt>
      <trkpt lat="47.620522" lon="14.36057">
        <time>1970-01-01T00:00:00+00:00</time>
        <ele>1114.0</ele>
      </trkpt>
      <trkpt lat="47.620722" lon="14.360514">
        <time>1970-01-01T00:00:00+00:00</time>
        <ele>1117.0</ele>
      </trkpt>
      <trkpt lat="47.621022" lon="14.360309">
        <time>1970-01-01T00:00:00+00:00</time>
        <ele>1125.0</ele>
      </trkpt>
      <trkpt lat="47.621262" lon="14.360228">
        <time>1970-01-01T00:00:00+00:00</time>
        <ele>1130.0</ele>
      </trkpt>
      <trkpt lat="47.621669" lon="14.360233">
        <time>1970-01-01T00:00:00+00:00</time>
        <ele>1135.0</ele>
      </trkpt>
      <trkpt lat="47.622105" lon="14.360023">
        <time>1970-01-01T00:00:00+00:00</time>
        <ele>1143.0</ele>
      </trkpt>
      <trkpt lat="47.622284" lon="14.359837">
        <time>1970-01-01T00:00:00+00:00</time>
        <ele>1148.0</ele>
      </trkpt>
      <trkpt lat="47.622532" lon="14.359788">
        <time>1970-01-01T00:00:00+00:00</time>
        <ele>1152.0</ele>
      </trkpt>
      <trkpt lat="47.622776" lon="14.359859">
        <time>1970-01-01T00:00:00+00:00</time>
        <ele>1155.0</ele>
      </trkpt>
      <trkpt lat="47.622992" lon="14.360081">
        <time>1970-01-01T00:00:00+00:00</time>
        <ele>1158.0</ele>
      </trkpt>
      <trkpt lat="47.623222" lon="14.360243">
        <time>1970-01-01T00:00:00+00:00</time>
        <ele>1162.0</ele>
      </trkpt>
      <trkpt lat="47.623447" lon="14.36048">
        <time>1970-01-01T00:00:00+00:00</time>
        <ele>1167.0</ele>
      </trkpt>
      <trkpt lat="47.623622" lon="14.360715">
        <time>1970-01-01T00:00:00+00:00</time>
        <ele>1168.0</ele>
      </trkpt>
      <trkpt lat="47.623693" lon="14.360781">
        <time>1970-01-01T00:00:00+00:00</time>
        <ele>1168.0</ele>
      </trkpt>
      <trkpt lat="47.623996" lon="14.360912">
        <time>1970-01-01T00:00:00+00:00</time>
        <ele>1178.0</ele>
      </trkpt>
      <trkpt lat="47.62409" lon="14.36112">
        <time>1970-01-01T00:00:00+00:00</time>
        <ele>1181.0</ele>
      </trkpt>
      <trkpt lat="47.624162" lon="14.361324">
        <time>1970-01-01T00:00:00+00:00</time>
        <ele>1185.0</ele>
      </trkpt>
      <trkpt lat="47.624252" lon="14.361745">
        <time>1970-01-01T00:00:00+00:00</time>
        <ele>1189.0</ele>
      </trkpt>
      <trkpt lat="47.62426" lon="14.362033">
        <time>1970-01-01T00:00:00+00:00</time>
        <ele>1187.0</ele>
      </trkpt>
      <trkpt lat="47.624328" lon="14.362222">
        <time>1970-01-01T00:00:00+00:00</time>
        <ele>1190.0</ele>
      </trkpt>
      <trkpt lat="47.624434" lon="14.36243">
        <time>1970-01-01T00:00:00+00:00</time>
        <ele>1195.0</ele>
      </trkpt>
      <trkpt lat="47.624578" lon="14.362823">
        <time>1970-01-01T00:00:00+00:00</time>
        <ele>1203.0</ele>
      </trkpt>
      <trkpt lat="47.624666" lon="14.363213">
        <time>1970-01-01T00:00:00+00:00</time>
        <ele>1211.0</ele>
      </trkpt>
      <trkpt lat="47.624668" lon="14.363419">
        <time>1970-01-01T00:00:00+00:00</time>
        <ele>1214.0</ele>
      </trkpt>
      <trkpt lat="47.624615" lon="14.363699">
        <time>1970-01-01T00:00:00+00:00</time>
        <ele>1215.0</ele>
      </trkpt>
      <trkpt lat="47.624594" lon="14.363929">
        <time>1970-01-01T00:00:00+00:00</time>
        <ele>1216.0</ele>
      </trkpt>
      <trkpt lat="47.62462" lon="14.364063">
        <time>1970-01-01T00:00:00+00:00</time>
        <ele>1216.0</ele>
      </trkpt>
      <trkpt lat="47.624658" lon="14.364082">
        <time>1970-01-01T00:00:00+00:00</time>
        <ele>1217.0</ele>
      </trkpt>
      <trkpt lat="47.624696" lon="14.363988">
        <time>1970-01-01T00:00:00+00:00</time>
        <ele>1219.0</ele>
      </trkpt>
      <trkpt lat="47.624847" lon="14.363871">
        <time>1970-01-01T00:00:00+00:00</time>
        <ele>1225.0</ele>
      </trkpt>
      <trkpt lat="47.624932" lon="14.363872">
        <time>1970-01-01T00:00:00+00:00</time>
        <ele>1228.0</ele>
      </trkpt>
      <trkpt lat="47.625108" lon="14.363805">
        <time>1970-01-01T00:00:00+00:00</time>
        <ele>1235.0</ele>
      </trkpt>
      <trkpt lat="47.625349" lon="14.363822">
        <time>1970-01-01T00:00:00+00:00</time>
        <ele>1243.0</ele>
      </trkpt>
      <trkpt lat="47.625476" lon="14.363518">
        <time>1970-01-01T00:00:00+00:00</time>
        <ele>1249.0</ele>
      </trkpt>
      <trkpt lat="47.625517" lon="14.363505">
        <time>1970-01-01T00:00:00+00:00</time>
        <ele>1251.0</ele>
      </trkpt>
      <trkpt lat="47.625529" lon="14.363442">
        <time>1970-01-01T00:00:00+00:00</time>
        <ele>1252.0</ele>
      </trkpt>
      <trkpt lat="47.62559" lon="14.363378">
        <time>1970-01-01T00:00:00+00:00</time>
        <ele>1255.0</ele>
      </trkpt>
      <trkpt lat="47.625803" lon="14.36295">
        <time>1970-01-01T00:00:00+00:00</time>
        <ele>1264.0</ele>
      </trkpt>
      <trkpt lat="47.626043" lon="14.362882">
        <time>1970-01-01T00:00:00+00:00</time>
        <ele>1274.0</ele>
      </trkpt>
      <trkpt lat="47.626207" lon="14.362685">
        <time>1970-01-01T00:00:00+00:00</time>
        <ele>1281.0</ele>
      </trkpt>
      <trkpt lat="47.626258" lon="14.36267">
        <time>1970-01-01T00:00:00+00:00</time>
        <ele>1283.0</ele>
      </trkpt>
      <trkpt lat="47.626278" lon="14.362634">
        <time>1970-01-01T00:00:00+00:00</time>
        <ele>1284.0</ele>
      </trkpt>
      <trkpt lat="47.626363" lon="14.362693">
        <time>1970-01-01T00:00:00+00:00</time>
        <ele>1286.0</ele>
      </trkpt>
      <trkpt lat="47.626389" lon="14.362684">
        <time>1970-01-01T00:00:00+00:00</time>
        <ele>1287.0</ele>
      </trkpt>
      <trkpt lat="47.626427" lon="14.362734">
        <time>1970-01-01T00:00:00+00:00</time>
        <ele>1288.0</ele>
      </trkpt>
      <trkpt lat="47.626467" lon="14.362458">
        <time>1970-01-01T00:00:00+00:00</time>
        <ele>1295.0</ele>
      </trkpt>
      <trkpt lat="47.626512" lon="14.362498">
        <time>1970-01-01T00:00:00+00:00</time>
        <ele>1296.0</ele>
      </trkpt>
      <trkpt lat="47.626531" lon="14.362446">
        <time>1970-01-01T00:00:00+00:00</time>
        <ele>1298.0</ele>
      </trkpt>
      <trkpt lat="47.626515" lon="14.362373">
        <time>1970-01-01T00:00:00+00:00</time>
        <ele>1298.0</ele>
      </trkpt>
      <trkpt lat="47.626531" lon="14.362276">
        <time>1970-01-01T00:00:00+00:00</time>
        <ele>1300.0</ele>
      </trkpt>
      <trkpt lat="47.626609" lon="14.362261">
        <time>1970-01-01T00:00:00+00:00</time>
        <ele>1304.0</ele>
      </trkpt>
      <trkpt lat="47.62668" lon="14.362198">
        <time>1970-01-01T00:00:00+00:00</time>
        <ele>1309.0</ele>
      </trkpt>
      <trkpt lat="47.626778" lon="14.362158">
        <time>1970-01-01T00:00:00+00:00</time>
        <ele>1314.0</ele>
      </trkpt>
      <trkpt lat="47.626927" lon="14.362183">
        <time>1970-01-01T00:00:00+00:00</time>
        <ele>1319.0</ele>
      </trkpt>
      <trkpt lat="47.627005" lon="14.362282">
        <time>1970-01-01T00:00:00+00:00</time>
        <ele>1321.0</ele>
      </trkpt>
      <trkpt lat="47.627063" lon="14.362313">
        <time>1970-01-01T00:00:00+00:00</time>
        <ele>1323.0</ele>
      </trkpt>
      <trkpt lat="47.62708" lon="14.3623">
        <time>1970-01-01T00:00:00+00:00</time>
        <ele>1324.0</ele>
      </trkpt>
      <trkpt lat="47.627066" lon="14.362236">
        <time>1970-01-01T00:00:00+00:00</time>
        <ele>1325.0</ele>
      </trkpt>
      <trkpt lat="47.627073" lon="14.362194">
        <time>1970-01-01T00:00:00+00:00</time>
        <ele>1326.0</ele>
      </trkpt>
      <trkpt lat="47.627137" lon="14.362261">
        <time>1970-01-01T00:00:00+00:00</time>
        <ele>1328.0</ele>
      </trkpt>
      <trkpt lat="47.627158" lon="14.362242">
        <time>1970-01-01T00:00:00+00:00</time>
        <ele>1329.0</ele>
      </trkpt>
      <trkpt lat="47.627301" lon="14.362323">
        <time>1970-01-01T00:00:00+00:00</time>
        <ele>1334.0</ele>
      </trkpt>
      <trkpt lat="47.627265" lon="14.362068">
        <time>1970-01-01T00:00:00+00:00</time>
        <ele>1339.0</ele>
      </trkpt>
      <trkpt lat="47.627271" lon="14.361985">
        <time>1970-01-01T00:00:00+00:00</time>
        <ele>1342.0</ele>
      </trkpt>
      <trkpt lat="47.627327" lon="14.361867">
        <time>1970-01-01T00:00:00+00:00</time>
        <ele>1347.0</ele>
      </trkpt>
      <trkpt lat="47.627353" lon="14.361927">
        <time>1970-01-01T00:00:00+00:00</time>
        <ele>1346.0</ele>
      </trkpt>
      <trkpt lat="47.6274" lon="14.361843">
        <time>1970-01-01T00:00:00+00:00</time>
        <ele>1351.0</ele>
      </trkpt>
      <trkpt lat="47.627439" lon="14.36193">
        <time>1970-01-01T00:00:00+00:00</time>
        <ele>1350.0</ele>
      </trkpt>
      <trkpt lat="47.627566" lon="14.361678">
        <time>1970-01-01T00:00:00+00:00</time>
        <ele>1364.0</ele>
      </trkpt>
      <trkpt lat="47.627673" lon="14.361614">
        <time>1970-01-01T00:00:00+00:00</time>
        <ele>1370.0</ele>
      </trkpt>
      <trkpt lat="47.627713" lon="14.361642">
        <time>1970-01-01T00:00:00+00:00</time>
        <ele>1372.0</ele>
      </trkpt>
      <trkpt lat="47.627772" lon="14.361644">
        <time>1970-01-01T00:00:00+00:00</time>
        <ele>1375.0</ele>
      </trkpt>
      <trkpt lat="47.627938" lon="14.361872">
        <time>1970-01-01T00:00:00+00:00</time>
        <ele>1375.0</ele>
      </trkpt>
      <trkpt lat="47.627973" lon="14.361796">
        <time>1970-01-01T00:00:00+00:00</time>
        <ele>1378.0</ele>
      </trkpt>
      <trkpt lat="47.628117" lon="14.361907">
        <time>1970-01-01T00:00:00+00:00</time>
        <ele>1384.0</ele>
      </trkpt>
      <trkpt lat="47.628156" lon="14.361852">
        <time>1970-01-01T00:00:00+00:00</time>
        <ele>1387.0</ele>
      </trkpt>
      <trkpt lat="47.628256" lon="14.361886">
        <time>1970-01-01T00:00:00+00:00</time>
        <ele>1392.0</ele>
      </trkpt>
      <trkpt lat="47.628285" lon="14.361991">
        <time>1970-01-01T00:00:00+00:00</time>
        <ele>1392.0</ele>
      </trkpt>
      <trkpt lat="47.628351" lon="14.361918">
        <time>1970-01-01T00:00:00+00:00</time>
        <ele>1396.0</ele>
      </trkpt>
      <trkpt lat="47.628457" lon="14.362096">
        <time>1970-01-01T00:00:00+00:00</time>
        <ele>1399.0</ele>
      </trkpt>
      <trkpt lat="47.628606" lon="14.362183">
        <time>1970-01-01T00:00:00+00:00</time>
        <ele>1407.0</ele>
      </trkpt>
      <trkpt lat="47.62865" lon="14.362273">
        <time>1970-01-01T00:00:00+00:00</time>
        <ele>1409.0</ele>
      </trkpt>
      <trkpt lat="47.628701" lon="14.362246">
        <time>1970-01-01T00:00:00+00:00</time>
        <ele>1412.0</ele>
      </trkpt>
      <trkpt lat="47.628736" lon="14.362341">
        <time>1970-01-01T00:00:00+00:00</time>
        <ele>1414.0</ele>
      </trkpt>
      <trkpt lat="47.628788" lon="14.36231">
        <time>1970-01-01T00:00:00+00:00</time>
        <ele>1416.0</ele>
      </trkpt>
      <trkpt lat="47.628799" lon="14.36248">
        <time>1970-01-01T00:00:00+00:00</time>
        <ele>1416.0</ele>
      </trkpt>
      <trkpt lat="47.628873" lon="14.362504">
        <time>1970-01-01T00:00:00+00:00</time>
        <ele>1419.0</ele>
      </trkpt>
      <trkpt lat="47.628925" lon="14.362561">
        <time>1970-01-01T00:00:00+00:00</time>
        <ele>1420.0</ele>
      </trkpt>
      <trkpt lat="47.628966" lon="14.362446">
        <time>1970-01-01T00:00:00+00:00</time>
        <ele>1421.0</ele>
      </trkpt>
      <trkpt lat="47.628989" lon="14.362219">
        <time>1970-01-01T00:00:00+00:00</time>
        <ele>1423.0</ele>
      </trkpt>
      <trkpt lat="47.629039" lon="14.36199">
        <time>1970-01-01T00:00:00+00:00</time>
        <ele>1427.0</ele>
      </trkpt>
      <trkpt lat="47.629115" lon="14.361974">
        <time>1970-01-01T00:00:00+00:00</time>
        <ele>1429.0</ele>
      </trkpt>
      <trkpt lat="47.629197" lon="14.361909">
        <time>1970-01-01T00:00:00+00:00</time>
        <ele>1432.0</ele>
      </trkpt>
      <trkpt lat="47.629141" lon="14.361889">
        <time>1970-01-01T00:00:00+00:00</time>
        <ele>1431.0</ele>
      </trkpt>
      <trkpt lat="47.629093" lon="14.361839">
        <time>1970-01-01T00:00:00+00:00</time>
        <ele>1432.0</ele>
      </trkpt>
      <trkpt lat="47.629054" lon="14.361748">
        <time>1970-01-01T00:00:00+00:00</time>
        <ele>1433.0</ele>
      </trkpt>
      <trkpt lat="47.629095" lon="14.361652">
        <time>1970-01-01T00:00:00+00:00</time>
        <ele>1436.0</ele>
      </trkpt>
      <trkpt lat="47.629083" lon="14.36157">
        <time>1970-01-01T00:00:00+00:00</time>
        <ele>1438.0</ele>
      </trkpt>
      <trkpt lat="47.629132" lon="14.361528">
        <time>1970-01-01T00:00:00+00:00</time>
        <ele>1440.0</ele>
      </trkpt>
      <trkpt lat="47.6291" lon="14.361411">
        <time>1970-01-01T00:00:00+00:00</time>
        <ele>1442.0</ele>
      </trkpt>
      <trkpt lat="47.629139" lon="14.361374">
        <time>1970-01-01T00:00:00+00:00</time>
        <ele>1444.0</ele>
      </trkpt>
      <trkpt lat="47.629106" lon="14.361335">
        <time>1970-01-01T00:00:00+00:00</time>
        <ele>1445.0</ele>
      </trkpt>
      <trkpt lat="47.629135" lon="14.361273">
        <time>1970-01-01T00:00:00+00:00</time>
        <ele>1448.0</ele>
      </trkpt>
      <trkpt lat="47.629103" lon="14.361216">
        <time>1970-01-01T00:00:00+00:00</time>
        <ele>1450.0</ele>
      </trkpt>
      <trkpt lat="47.629142" lon="14.361134">
        <time>1970-01-01T00:00:00+00:00</time>
        <ele>1454.0</ele>
      </trkpt>
      <trkpt lat="47.628997" lon="14.360877">
        <time>1970-01-01T00:00:00+00:00</time>
        <ele>1465.0</ele>
      </trkpt>
      <trkpt lat="47.629032" lon="14.360751">
        <time>1970-01-01T00:00:00+00:00</time>
        <ele>1473.0</ele>
      </trkpt>
      <trkpt lat="47.629001" lon="14.360645">
        <time>1970-01-01T00:00:00+00:00</time>
        <ele>1479.0</ele>
      </trkpt>
      <trkpt lat="47.629046" lon="14.360538">
        <time>1970-01-01T00:00:00+00:00</time>
        <ele>1486.0</ele>
      </trkpt>
      <trkpt lat="47.629042" lon="14.36041">
        <time>1970-01-01T00:00:00+00:00</time>
        <ele>1491.0</ele>
      </trkpt>
      <trkpt lat="47.628973" lon="14.360264">
        <time>1970-01-01T00:00:00+00:00</time>
        <ele>1496.0</ele>
      </trkpt>
      <trkpt lat="47.628777" lon="14.360078">
        <time>1970-01-01T00:00:00+00:00</time>
        <ele>1496.0</ele>
      </trkpt>
      <trkpt lat="47.628684" lon="14.359811">
        <time>1970-01-01T00:00:00+00:00</time>
        <ele>1503.0</ele>
      </trkpt>
      <trkpt lat="47.628625" lon="14.359741">
        <time>1970-01-01T00:00:00+00:00</time>
        <ele>1502.0</ele>
      </trkpt>
      <trkpt lat="47.628609" lon="14.359608">
        <time>1970-01-01T00:00:00+00:00</time>
        <ele>1508.0</ele>
      </trkpt>
      <trkpt lat="47.628556" lon="14.359549">
        <time>1970-01-01T00:00:00+00:00</time>
        <ele>1509.0</ele>
      </trkpt>
      <trkpt lat="47.628532" lon="14.359445">
        <time>1970-01-01T00:00:00+00:00</time>
        <ele>1513.0</ele>
      </trkpt>
      <trkpt lat="47.628443" lon="14.359363">
        <time>1970-01-01T00:00:00+00:00</time>
        <ele>1514.0</ele>
      </trkpt>
      <trkpt lat="47.628467" lon="14.359283">
        <time>1970-01-01T00:00:00+00:00</time>
        <ele>1518.0</ele>
      </trkpt>
      <trkpt lat="47.628426" lon="14.359158">
        <time>1970-01-01T00:00:00+00:00</time>
        <ele>1522.0</ele>
      </trkpt>
      <trkpt lat="47.628373" lon="14.359099">
        <time>1970-01-01T00:00:00+00:00</time>
        <ele>1523.0</ele>
      </trkpt>
      <trkpt lat="47.628388" lon="14.359001">
        <time>1970-01-01T00:00:00+00:00</time>
        <ele>1527.0</ele>
      </trkpt>
      <trkpt lat="47.628316" lon="14.358785">
        <time>1970-01-01T00:00:00+00:00</time>
        <ele>1532.0</ele>
      </trkpt>
      <trkpt lat="47.62816" lon="14.358577">
        <time>1970-01-01T00:00:00+00:00</time>
        <ele>1534.0</ele>
      </trkpt>
      <trkpt lat="47.628091" lon="14.358557">
        <time>1970-01-01T00:00:00+00:00</time>
        <ele>1531.0</ele>
      </trkpt>
      <trkpt lat="47.627966" lon="14.358352">
        <time>1970-01-01T00:00:00+00:00</time>
        <ele>1531.0</ele>
      </trkpt>
      <trkpt lat="47.627957" lon="14.358199">
        <time>1970-01-01T00:00:00+00:00</time>
        <ele>1535.0</ele>
      </trkpt>
      <trkpt lat="47.627825" lon="14.358027">
        <time>1970-01-01T00:00:00+00:00</time>
        <ele>1534.0</ele>
      </trkpt>
      <trkpt lat="47.627808" lon="14.357581">
        <time>1970-01-01T00:00:00+00:00</time>
        <ele>1545.0</ele>
      </trkpt>
      <trkpt lat="47.627768" lon="14.357454">
        <time>1970-01-01T00:00:00+00:00</time>
        <ele>1549.0</ele>
      </trkpt>
      <trkpt lat="47.627764" lon="14.357325">
        <time>1970-01-01T00:00:00+00:00</time>
        <ele>1553.0</ele>
      </trkpt>
      <trkpt lat="47.627736" lon="14.357167">
        <time>1970-01-01T00:00:00+00:00</time>
        <ele>1559.0</ele>
      </trkpt>
      <trkpt lat="47.627529" lon="14.357224">
        <time>1970-01-01T00:00:00+00:00</time>
        <ele>1562.0</ele>
      </trkpt>
      <trkpt lat="47.627414" lon="14.357119">
        <time>1970-01-01T00:00:00+00:00</time>
        <ele>1569.0</ele>
      </trkpt>
      <trkpt lat="47.627422" lon="14.357032">
        <time>1970-01-01T00:00:00+00:00</time>
        <ele>1572.0</ele>
      </trkpt>
      <trkpt lat="47.627375" lon="14.357022">
        <time>1970-01-01T00:00:00+00:00</time>
        <ele>1571.0</ele>
      </trkpt>
      <trkpt lat="47.627336" lon="14.356889">
        <time>1970-01-01T00:00:00+00:00</time>
        <ele>1572.0</ele>
      </trkpt>
      <trkpt lat="47.627281" lon="14.356813">
        <time>1970-01-01T00:00:00+00:00</time>
        <ele>1573.0</ele>
      </trkpt>
      <trkpt lat="47.627201" lon="14.356519">
        <time>1970-01-01T00:00:00+00:00</time>
        <ele>1578.0</ele>
      </trkpt>
      <trkpt lat="47.627154" lon="14.356471">
        <time>1970-01-01T00:00:00+00:00</time>
        <ele>1577.0</ele>
      </trkpt>
      <trkpt lat="47.627141" lon="14.356374">
        <time>1970-01-01T00:00:00+00:00</time>
        <ele>1581.0</ele>
      </trkpt>
      <trkpt lat="47.627105" lon="14.356313">
        <time>1970-01-01T00:00:00+00:00</time>
        <ele>1583.0</ele>
      </trkpt>
      <trkpt lat="47.627114" lon="14.356204">
        <time>1970-01-01T00:00:00+00:00</time>
        <ele>1587.0</ele>
      </trkpt>
      <trkpt lat="47.627058" lon="14.356084">
        <time>1970-01-01T00:00:00+00:00</time>
        <ele>1591.0</ele>
      </trkpt>
      <trkpt lat="47.627055" lon="14.356021">
        <time>1970-01-01T00:00:00+00:00</time>
        <ele>1594.0</ele>
      </trkpt>
      <trkpt lat="47.627024" lon="14.356005">
        <time>1970-01-01T00:00:00+00:00</time>
        <ele>1594.0</ele>
      </trkpt>
      <trkpt lat="47.627007" lon="14.355974">
        <time>1970-01-01T00:00:00+00:00</time>
        <ele>1595.0</ele>
      </trkpt>
      <trkpt lat="47.627018" lon="14.355944">
        <time>1970-01-01T00:00:00+00:00</time>
        <ele>1596.0</ele>
      </trkpt>
      <trkpt lat="47.626993" lon="14.35592">
        <time>1970-01-01T00:00:00+00:00</time>
        <ele>1597.0</ele>
      </trkpt>
      <trkpt lat="47.626977" lon="14.355946">
        <time>1970-01-01T00:00:00+00:00</time>
        <ele>1595.0</ele>
      </trkpt>
      <trkpt lat="47.626955" lon="14.355905">
        <time>1970-01-01T00:00:00+00:00</time>
        <ele>1597.0</ele>
      </trkpt>
      <trkpt lat="47.626939" lon="14.355933">
        <time>1970-01-01T00:00:00+00:00</time>
        <ele>1595.0</ele>
      </trkpt>
      <trkpt lat="47.626906" lon="14.355891">
        <time>1970-01-01T00:00:00+00:00</time>
        <ele>1597.0</ele>
      </trkpt>
      <trkpt lat="47.62683" lon="14.355854">
        <time>1970-01-01T00:00:00+00:00</time>
        <ele>1598.0</ele>
      </trkpt>
      <trkpt lat="47.62684" lon="14.355832">
        <time>1970-01-01T00:00:00+00:00</time>
        <ele>1599.0</ele>
      </trkpt>
      <trkpt lat="47.626785" lon="14.35552">
        <time>1970-01-01T00:00:00+00:00</time>
        <ele>1612.0</ele>
      </trkpt>
      <trkpt lat="47.626677" lon="14.355199">
        <time>1970-01-01T00:00:00+00:00</time>
        <ele>1618.0</ele>
      </trkpt>
      <trkpt lat="47.626637" lon="14.355021">
        <time>1970-01-01T00:00:00+00:00</time>
        <ele>1620.0</ele>
      </trkpt>
      <trkpt lat="47.626582" lon="14.354903">
        <time>1970-01-01T00:00:00+00:00</time>
        <ele>1622.0</ele>
      </trkpt>
      <trkpt lat="47.626547" lon="14.354723">
        <time>1970-01-01T00:00:00+00:00</time>
        <ele>1626.0</ele>
      </trkpt>
      <trkpt lat="47.626564" lon="14.354693">
        <time>1970-01-01T00:00:00+00:00</time>
        <ele>1627.0</ele>
      </trkpt>
      <trkpt lat="47.626537" lon="14.354673">
        <time>1970-01-01T00:00:00+00:00</time>
        <ele>1628.0</ele>
      </trkpt>
      <trkpt lat="47.62652" lon="14.354607">
        <time>1970-01-01T00:00:00+00:00</time>
        <ele>1629.0</ele>
      </trkpt>
      <trkpt lat="47.626471" lon="14.35452">
        <time>1970-01-01T00:00:00+00:00</time>
        <ele>1630.0</ele>
      </trkpt>
      <trkpt lat="47.626409" lon="14.354458">
        <time>1970-01-01T00:00:00+00:00</time>
        <ele>1631.0</ele>
      </trkpt>
      <trkpt lat="47.626291" lon="14.354411">
        <time>1970-01-01T00:00:00+00:00</time>
        <ele>1631.0</ele>
      </trkpt>
      <trkpt lat="47.626125" lon="14.354142">
        <time>1970-01-01T00:00:00+00:00</time>
        <ele>1634.0</ele>
      </trkpt>
      <trkpt lat="47.626047" lon="14.354063">
        <time>1970-01-01T00:00:00+00:00</time>
        <ele>1634.0</ele>
      </trkpt>
      <trkpt lat="47.625994" lon="14.353949">
        <time>1970-01-01T00:00:00+00:00</time>
        <ele>1634.0</ele>
      </trkpt>
      <trkpt lat="47.625943" lon="14.353945">
        <time>1970-01-01T00:00:00+00:00</time>
        <ele>1634.0</ele>
      </trkpt>
      <trkpt lat="47.625928" lon="14.353887">
        <time>1970-01-01T00:00:00+00:00</time>
        <ele>1634.0</ele>
      </trkpt>
      <trkpt lat="47.625948" lon="14.353657">
        <time>1970-01-01T00:00:00+00:00</time>
        <ele>1639.0</ele>
      </trkpt>
      <trkpt lat="47.625997" lon="14.353434">
        <time>1970-01-01T00:00:00+00:00</time>
        <ele>1643.0</ele>
      </trkpt>
      <trkpt lat="47.625965" lon="14.353325">
        <time>1970-01-01T00:00:00+00:00</time>
        <ele>1645.0</ele>
      </trkpt>
      <trkpt lat="47.625924" lon="14.353259">
        <time>1970-01-01T00:00:00+00:00</time>
        <ele>1646.0</ele>
      </trkpt>
      <trkpt lat="47.625925" lon="14.353195">
        <time>1970-01-01T00:00:00+00:00</time>
        <ele>1647.0</ele>
      </trkpt>
      <trkpt lat="47.625878" lon="14.353017">
        <time>1970-01-01T00:00:00+00:00</time>
        <ele>1650.0</ele>
      </trkpt>
      <trkpt lat="47.625809" lon="14.352904">
        <time>1970-01-01T00:00:00+00:00</time>
        <ele>1652.0</ele>
      </trkpt>
      <trkpt lat="47.625765" lon="14.352904">
        <time>1970-01-01T00:00:00+00:00</time>
        <ele>1653.0</ele>
      </trkpt>
      <trkpt lat="47.625718" lon="14.352847">
        <time>1970-01-01T00:00:00+00:00</time>
        <ele>1654.0</ele>
      </trkpt>
      <trkpt lat="47.625741" lon="14.352512">
        <time>1970-01-01T00:00:00+00:00</time>
        <ele>1659.0</ele>
      </trkpt>
      <trkpt lat="47.625828" lon="14.352229">
        <time>1970-01-01T00:00:00+00:00</time>
        <ele>1659.0</ele>
      </trkpt>
      <trkpt lat="47.625773" lon="14.352037">
        <time>1970-01-01T00:00:00+00:00</time>
        <ele>1663.0</ele>
      </trkpt>
      <trkpt lat="47.625662" lon="14.351893">
        <time>1970-01-01T00:00:00+00:00</time>
        <ele>1666.0</ele>
      </trkpt>
      <trkpt lat="47.625564" lon="14.351959">
        <time>1970-01-01T00:00:00+00:00</time>
        <ele>1667.0</ele>
      </trkpt>
      <trkpt lat="47.625501" lon="14.351837">
        <time>1970-01-01T00:00:00+00:00</time>
        <ele>1670.0</ele>
      </trkpt>
      <trkpt lat="47.625445" lon="14.351849">
        <time>1970-01-01T00:00:00+00:00</time>
        <ele>1672.0</ele>
      </trkpt>
      <trkpt lat="47.625416" lon="14.351987">
        <time>1970-01-01T00:00:00+00:00</time>
        <ele>1671.0</ele>
      </trkpt>
      <trkpt lat="47.625252" lon="14.352147">
        <time>1970-01-01T00:00:00+00:00</time>
        <ele>1672.0</ele>
      </trkpt>
      <trkpt lat="47.625097" lon="14.35208">
        <time>1970-01-01T00:00:00+00:00</time>
        <ele>1672.0</ele>
      </trkpt>
      <trkpt lat="47.624729" lon="14.351627">
        <time>1970-01-01T00:00:00+00:00</time>
        <ele>1667.0</ele>
      </trkpt>
      <trkpt lat="47.624486" lon="14.350965">
        <time>1970-01-01T00:00:00+00:00</time>
        <ele>1687.0</ele>
      </trkpt>
      <trkpt lat="47.624486" lon="14.350965">
        <time>1970-01-01T00:00:00+00:00</time>
        <ele>1687.0</ele>
      </trkpt>
      <trkpt lat="47.624729" lon="14.351627">
        <time>1970-01-01T00:00:00+00:00</time>
        <ele>1667.0</ele>
      </trkpt>
      <trkpt lat="47.625097" lon="14.35208">
        <time>1970-01-01T00:00:00+00:00</time>
        <ele>1672.0</ele>
      </trkpt>
      <trkpt lat="47.625252" lon="14.352147">
        <time>1970-01-01T00:00:00+00:00</time>
        <ele>1672.0</ele>
      </trkpt>
      <trkpt lat="47.625416" lon="14.351987">
        <time>1970-01-01T00:00:00+00:00</time>
        <ele>1671.0</ele>
      </trkpt>
      <trkpt lat="47.625445" lon="14.351849">
        <time>1970-01-01T00:00:00+00:00</time>
        <ele>1672.0</ele>
      </trkpt>
      <trkpt lat="47.625501" lon="14.351837">
        <time>1970-01-01T00:00:00+00:00</time>
        <ele>1670.0</ele>
      </trkpt>
      <trkpt lat="47.625564" lon="14.351959">
        <time>1970-01-01T00:00:00+00:00</time>
        <ele>1667.0</ele>
      </trkpt>
      <trkpt lat="47.625662" lon="14.351893">
        <time>1970-01-01T00:00:00+00:00</time>
        <ele>1666.0</ele>
      </trkpt>
      <trkpt lat="47.625773" lon="14.352037">
        <time>1970-01-01T00:00:00+00:00</time>
        <ele>1663.0</ele>
      </trkpt>
      <trkpt lat="47.625828" lon="14.352229">
        <time>1970-01-01T00:00:00+00:00</time>
        <ele>1659.0</ele>
      </trkpt>
      <trkpt lat="47.625741" lon="14.352512">
        <time>1970-01-01T00:00:00+00:00</time>
        <ele>1659.0</ele>
      </trkpt>
      <trkpt lat="47.625718" lon="14.352847">
        <time>1970-01-01T00:00:00+00:00</time>
        <ele>1654.0</ele>
      </trkpt>
      <trkpt lat="47.625765" lon="14.352904">
        <time>1970-01-01T00:00:00+00:00</time>
        <ele>1653.0</ele>
      </trkpt>
      <trkpt lat="47.625809" lon="14.352904">
        <time>1970-01-01T00:00:00+00:00</time>
        <ele>1652.0</ele>
      </trkpt>
      <trkpt lat="47.625878" lon="14.353017">
        <time>1970-01-01T00:00:00+00:00</time>
        <ele>1650.0</ele>
      </trkpt>
      <trkpt lat="47.625925" lon="14.353195">
        <time>1970-01-01T00:00:00+00:00</time>
        <ele>1647.0</ele>
      </trkpt>
      <trkpt lat="47.625924" lon="14.353259">
        <time>1970-01-01T00:00:00+00:00</time>
        <ele>1646.0</ele>
      </trkpt>
      <trkpt lat="47.625965" lon="14.353325">
        <time>1970-01-01T00:00:00+00:00</time>
        <ele>1645.0</ele>
      </trkpt>
      <trkpt lat="47.625997" lon="14.353434">
        <time>1970-01-01T00:00:00+00:00</time>
        <ele>1643.0</ele>
      </trkpt>
      <trkpt lat="47.625948" lon="14.353657">
        <time>1970-01-01T00:00:00+00:00</time>
        <ele>1639.0</ele>
      </trkpt>
      <trkpt lat="47.625928" lon="14.353887">
        <time>1970-01-01T00:00:00+00:00</time>
        <ele>1634.0</ele>
      </trkpt>
      <trkpt lat="47.625943" lon="14.353945">
        <time>1970-01-01T00:00:00+00:00</time>
        <ele>1634.0</ele>
      </trkpt>
      <trkpt lat="47.625994" lon="14.353949">
        <time>1970-01-01T00:00:00+00:00</time>
        <ele>1634.0</ele>
      </trkpt>
      <trkpt lat="47.626047" lon="14.354063">
        <time>1970-01-01T00:00:00+00:00</time>
        <ele>1634.0</ele>
      </trkpt>
      <trkpt lat="47.626125" lon="14.354142">
        <time>1970-01-01T00:00:00+00:00</time>
        <ele>1634.0</ele>
      </trkpt>
      <trkpt lat="47.626291" lon="14.354411">
        <time>1970-01-01T00:00:00+00:00</time>
        <ele>1631.0</ele>
      </trkpt>
      <trkpt lat="47.626409" lon="14.354458">
        <time>1970-01-01T00:00:00+00:00</time>
        <ele>1631.0</ele>
      </trkpt>
      <trkpt lat="47.626471" lon="14.35452">
        <time>1970-01-01T00:00:00+00:00</time>
        <ele>1630.0</ele>
      </trkpt>
      <trkpt lat="47.62652" lon="14.354607">
        <time>1970-01-01T00:00:00+00:00</time>
        <ele>1629.0</ele>
      </trkpt>
      <trkpt lat="47.626537" lon="14.354673">
        <time>1970-01-01T00:00:00+00:00</time>
        <ele>1628.0</ele>
      </trkpt>
      <trkpt lat="47.626564" lon="14.354693">
        <time>1970-01-01T00:00:00+00:00</time>
        <ele>1627.0</ele>
      </trkpt>
      <trkpt lat="47.626547" lon="14.354723">
        <time>1970-01-01T00:00:00+00:00</time>
        <ele>1626.0</ele>
      </trkpt>
      <trkpt lat="47.626582" lon="14.354903">
        <time>1970-01-01T00:00:00+00:00</time>
        <ele>1622.0</ele>
      </trkpt>
      <trkpt lat="47.626637" lon="14.355021">
        <time>1970-01-01T00:00:00+00:00</time>
        <ele>1620.0</ele>
      </trkpt>
      <trkpt lat="47.626677" lon="14.355199">
        <time>1970-01-01T00:00:00+00:00</time>
        <ele>1618.0</ele>
      </trkpt>
      <trkpt lat="47.626785" lon="14.35552">
        <time>1970-01-01T00:00:00+00:00</time>
        <ele>1612.0</ele>
      </trkpt>
      <trkpt lat="47.62684" lon="14.355832">
        <time>1970-01-01T00:00:00+00:00</time>
        <ele>1599.0</ele>
      </trkpt>
      <trkpt lat="47.62683" lon="14.355854">
        <time>1970-01-01T00:00:00+00:00</time>
        <ele>1598.0</ele>
      </trkpt>
      <trkpt lat="47.626906" lon="14.355891">
        <time>1970-01-01T00:00:00+00:00</time>
        <ele>1597.0</ele>
      </trkpt>
      <trkpt lat="47.626939" lon="14.355933">
        <time>1970-01-01T00:00:00+00:00</time>
        <ele>1595.0</ele>
      </trkpt>
      <trkpt lat="47.626955" lon="14.355905">
        <time>1970-01-01T00:00:00+00:00</time>
        <ele>1597.0</ele>
      </trkpt>
      <trkpt lat="47.626977" lon="14.355946">
        <time>1970-01-01T00:00:00+00:00</time>
        <ele>1595.0</ele>
      </trkpt>
      <trkpt lat="47.626993" lon="14.35592">
        <time>1970-01-01T00:00:00+00:00</time>
        <ele>1597.0</ele>
      </trkpt>
      <trkpt lat="47.627018" lon="14.355944">
        <time>1970-01-01T00:00:00+00:00</time>
        <ele>1596.0</ele>
      </trkpt>
      <trkpt lat="47.627007" lon="14.355974">
        <time>1970-01-01T00:00:00+00:00</time>
        <ele>1595.0</ele>
      </trkpt>
      <trkpt lat="47.627024" lon="14.356005">
        <time>1970-01-01T00:00:00+00:00</time>
        <ele>1594.0</ele>
      </trkpt>
      <trkpt lat="47.627055" lon="14.356021">
        <time>1970-01-01T00:00:00+00:00</time>
        <ele>1594.0</ele>
      </trkpt>
      <trkpt lat="47.627058" lon="14.356084">
        <time>1970-01-01T00:00:00+00:00</time>
        <ele>1591.0</ele>
      </trkpt>
      <trkpt lat="47.627114" lon="14.356204">
        <time>1970-01-01T00:00:00+00:00</time>
        <ele>1587.0</ele>
      </trkpt>
      <trkpt lat="47.627105" lon="14.356313">
        <time>1970-01-01T00:00:00+00:00</time>
        <ele>1583.0</ele>
      </trkpt>
      <trkpt lat="47.627141" lon="14.356374">
        <time>1970-01-01T00:00:00+00:00</time>
        <ele>1581.0</ele>
      </trkpt>
      <trkpt lat="47.627154" lon="14.356471">
        <time>1970-01-01T00:00:00+00:00</time>
        <ele>1577.0</ele>
      </trkpt>
      <trkpt lat="47.627201" lon="14.356519">
        <time>1970-01-01T00:00:00+00:00</time>
        <ele>1578.0</ele>
      </trkpt>
      <trkpt lat="47.627281" lon="14.356813">
        <time>1970-01-01T00:00:00+00:00</time>
        <ele>1573.0</ele>
      </trkpt>
      <trkpt lat="47.627336" lon="14.356889">
        <time>1970-01-01T00:00:00+00:00</time>
        <ele>1572.0</ele>
      </trkpt>
      <trkpt lat="47.627375" lon="14.357022">
        <time>1970-01-01T00:00:00+00:00</time>
        <ele>1571.0</ele>
      </trkpt>
      <trkpt lat="47.627422" lon="14.357032">
        <time>1970-01-01T00:00:00+00:00</time>
        <ele>1572.0</ele>
      </trkpt>
      <trkpt lat="47.627414" lon="14.357119">
        <time>1970-01-01T00:00:00+00:00</time>
        <ele>1569.0</ele>
      </trkpt>
      <trkpt lat="47.627529" lon="14.357224">
        <time>1970-01-01T00:00:00+00:00</time>
        <ele>1562.0</ele>
      </trkpt>
      <trkpt lat="47.627736" lon="14.357167">
        <time>1970-01-01T00:00:00+00:00</time>
        <ele>1559.0</ele>
      </trkpt>
      <trkpt lat="47.627764" lon="14.357325">
        <time>1970-01-01T00:00:00+00:00</time>
        <ele>1553.0</ele>
      </trkpt>
      <trkpt lat="47.627768" lon="14.357454">
        <time>1970-01-01T00:00:00+00:00</time>
        <ele>1549.0</ele>
      </trkpt>
      <trkpt lat="47.627808" lon="14.357581">
        <time>1970-01-01T00:00:00+00:00</time>
        <ele>1545.0</ele>
      </trkpt>
      <trkpt lat="47.627825" lon="14.358027">
        <time>1970-01-01T00:00:00+00:00</time>
        <ele>1534.0</ele>
      </trkpt>
      <trkpt lat="47.627957" lon="14.358199">
        <time>1970-01-01T00:00:00+00:00</time>
        <ele>1535.0</ele>
      </trkpt>
      <trkpt lat="47.627966" lon="14.358352">
        <time>1970-01-01T00:00:00+00:00</time>
        <ele>1531.0</ele>
      </trkpt>
      <trkpt lat="47.628091" lon="14.358557">
        <time>1970-01-01T00:00:00+00:00</time>
        <ele>1531.0</ele>
      </trkpt>
      <trkpt lat="47.62816" lon="14.358577">
        <time>1970-01-01T00:00:00+00:00</time>
        <ele>1534.0</ele>
      </trkpt>
      <trkpt lat="47.628316" lon="14.358785">
        <time>1970-01-01T00:00:00+00:00</time>
        <ele>1532.0</ele>
      </trkpt>
      <trkpt lat="47.628388" lon="14.359001">
        <time>1970-01-01T00:00:00+00:00</time>
        <ele>1527.0</ele>
      </trkpt>
      <trkpt lat="47.628373" lon="14.359099">
        <time>1970-01-01T00:00:00+00:00</time>
        <ele>1523.0</ele>
      </trkpt>
      <trkpt lat="47.628426" lon="14.359158">
        <time>1970-01-01T00:00:00+00:00</time>
        <ele>1522.0</ele>
      </trkpt>
      <trkpt lat="47.628467" lon="14.359283">
        <time>1970-01-01T00:00:00+00:00</time>
        <ele>1518.0</ele>
      </trkpt>
      <trkpt lat="47.628443" lon="14.359363">
        <time>1970-01-01T00:00:00+00:00</time>
        <ele>1514.0</ele>
      </trkpt>
      <trkpt lat="47.628532" lon="14.359445">
        <time>1970-01-01T00:00:00+00:00</time>
        <ele>1513.0</ele>
      </trkpt>
      <trkpt lat="47.628556" lon="14.359549">
        <time>1970-01-01T00:00:00+00:00</time>
        <ele>1509.0</ele>
      </trkpt>
      <trkpt lat="47.628609" lon="14.359608">
        <time>1970-01-01T00:00:00+00:00</time>
        <ele>1508.0</ele>
      </trkpt>
      <trkpt lat="47.628625" lon="14.359741">
        <time>1970-01-01T00:00:00+00:00</time>
        <ele>1502.0</ele>
      </trkpt>
      <trkpt lat="47.628684" lon="14.359811">
        <time>1970-01-01T00:00:00+00:00</time>
        <ele>1503.0</ele>
      </trkpt>
      <trkpt lat="47.628777" lon="14.360078">
        <time>1970-01-01T00:00:00+00:00</time>
        <ele>1496.0</ele>
      </trkpt>
      <trkpt lat="47.628973" lon="14.360264">
        <time>1970-01-01T00:00:00+00:00</time>
        <ele>1496.0</ele>
      </trkpt>
      <trkpt lat="47.629042" lon="14.36041">
        <time>1970-01-01T00:00:00+00:00</time>
        <ele>1491.0</ele>
      </trkpt>
      <trkpt lat="47.629046" lon="14.360538">
        <time>1970-01-01T00:00:00+00:00</time>
        <ele>1486.0</ele>
      </trkpt>
      <trkpt lat="47.629001" lon="14.360645">
        <time>1970-01-01T00:00:00+00:00</time>
        <ele>1479.0</ele>
      </trkpt>
      <trkpt lat="47.629032" lon="14.360751">
        <time>1970-01-01T00:00:00+00:00</time>
        <ele>1473.0</ele>
      </trkpt>
      <trkpt lat="47.628997" lon="14.360877">
        <time>1970-01-01T00:00:00+00:00</time>
        <ele>1465.0</ele>
      </trkpt>
      <trkpt lat="47.629142" lon="14.361134">
        <time>1970-01-01T00:00:00+00:00</time>
        <ele>1454.0</ele>
      </trkpt>
      <trkpt lat="47.629103" lon="14.361216">
        <time>1970-01-01T00:00:00+00:00</time>
        <ele>1450.0</ele>
      </trkpt>
      <trkpt lat="47.629135" lon="14.361273">
        <time>1970-01-01T00:00:00+00:00</time>
        <ele>1448.0</ele>
      </trkpt>
      <trkpt lat="47.629106" lon="14.361335">
        <time>1970-01-01T00:00:00+00:00</time>
        <ele>1445.0</ele>
      </trkpt>
      <trkpt lat="47.629139" lon="14.361374">
        <time>1970-01-01T00:00:00+00:00</time>
        <ele>1444.0</ele>
      </trkpt>
      <trkpt lat="47.6291" lon="14.361411">
        <time>1970-01-01T00:00:00+00:00</time>
        <ele>1442.0</ele>
      </trkpt>
      <trkpt lat="47.629132" lon="14.361528">
        <time>1970-01-01T00:00:00+00:00</time>
        <ele>1440.0</ele>
      </trkpt>
      <trkpt lat="47.629083" lon="14.36157">
        <time>1970-01-01T00:00:00+00:00</time>
        <ele>1438.0</ele>
      </trkpt>
      <trkpt lat="47.629095" lon="14.361652">
        <time>1970-01-01T00:00:00+00:00</time>
        <ele>1436.0</ele>
      </trkpt>
      <trkpt lat="47.629054" lon="14.361748">
        <time>1970-01-01T00:00:00+00:00</time>
        <ele>1433.0</ele>
      </trkpt>
      <trkpt lat="47.629093" lon="14.361839">
        <time>1970-01-01T00:00:00+00:00</time>
        <ele>1432.0</ele>
      </trkpt>
      <trkpt lat="47.629141" lon="14.361889">
        <time>1970-01-01T00:00:00+00:00</time>
        <ele>1431.0</ele>
      </trkpt>
      <trkpt lat="47.629197" lon="14.361909">
        <time>1970-01-01T00:00:00+00:00</time>
        <ele>1432.0</ele>
      </trkpt>
      <trkpt lat="47.629115" lon="14.361974">
        <time>1970-01-01T00:00:00+00:00</time>
        <ele>1429.0</ele>
      </trkpt>
      <trkpt lat="47.629039" lon="14.36199">
        <time>1970-01-01T00:00:00+00:00</time>
        <ele>1427.0</ele>
      </trkpt>
      <trkpt lat="47.628989" lon="14.362219">
        <time>1970-01-01T00:00:00+00:00</time>
        <ele>1423.0</ele>
      </trkpt>
      <trkpt lat="47.628966" lon="14.362446">
        <time>1970-01-01T00:00:00+00:00</time>
        <ele>1421.0</ele>
      </trkpt>
      <trkpt lat="47.628925" lon="14.362561">
        <time>1970-01-01T00:00:00+00:00</time>
        <ele>1420.0</ele>
      </trkpt>
      <trkpt lat="47.628873" lon="14.362504">
        <time>1970-01-01T00:00:00+00:00</time>
        <ele>1419.0</ele>
      </trkpt>
      <trkpt lat="47.628799" lon="14.36248">
        <time>1970-01-01T00:00:00+00:00</time>
        <ele>1416.0</ele>
      </trkpt>
      <trkpt lat="47.628788" lon="14.36231">
        <time>1970-01-01T00:00:00+00:00</time>
        <ele>1416.0</ele>
      </trkpt>
      <trkpt lat="47.628736" lon="14.362341">
        <time>1970-01-01T00:00:00+00:00</time>
        <ele>1414.0</ele>
      </trkpt>
      <trkpt lat="47.628701" lon="14.362246">
        <time>1970-01-01T00:00:00+00:00</time>
        <ele>1412.0</ele>
      </trkpt>
      <trkpt lat="47.62865" lon="14.362273">
        <time>1970-01-01T00:00:00+00:00</time>
        <ele>1409.0</ele>
      </trkpt>
      <trkpt lat="47.628606" lon="14.362183">
        <time>1970-01-01T00:00:00+00:00</time>
        <ele>1407.0</ele>
      </trkpt>
      <trkpt lat="47.628457" lon="14.362096">
        <time>1970-01-01T00:00:00+00:00</time>
        <ele>1399.0</ele>
      </trkpt>
      <trkpt lat="47.628351" lon="14.361918">
        <time>1970-01-01T00:00:00+00:00</time>
        <ele>1396.0</ele>
      </trkpt>
      <trkpt lat="47.628285" lon="14.361991">
        <time>1970-01-01T00:00:00+00:00</time>
        <ele>1392.0</ele>
      </trkpt>
      <trkpt lat="47.628256" lon="14.361886">
        <time>1970-01-01T00:00:00+00:00</time>
        <ele>1392.0</ele>
      </trkpt>
      <trkpt lat="47.628156" lon="14.361852">
        <time>1970-01-01T00:00:00+00:00</time>
        <ele>1387.0</ele>
      </trkpt>
      <trkpt lat="47.628117" lon="14.361907">
        <time>1970-01-01T00:00:00+00:00</time>
        <ele>1384.0</ele>
      </trkpt>
      <trkpt lat="47.627973" lon="14.361796">
        <time>1970-01-01T00:00:00+00:00</time>
        <ele>1378.0</ele>
      </trkpt>
      <trkpt lat="47.627938" lon="14.361872">
        <time>1970-01-01T00:00:00+00:00</time>
        <ele>1375.0</ele>
      </trkpt>
      <trkpt lat="47.627772" lon="14.361644">
        <time>1970-01-01T00:00:00+00:00</time>
        <ele>1375.0</ele>
      </trkpt>
      <trkpt lat="47.627713" lon="14.361642">
        <time>1970-01-01T00:00:00+00:00</time>
        <ele>1372.0</ele>
      </trkpt>
      <trkpt lat="47.627673" lon="14.361614">
        <time>1970-01-01T00:00:00+00:00</time>
        <ele>1370.0</ele>
      </trkpt>
      <trkpt lat="47.627566" lon="14.361678">
        <time>1970-01-01T00:00:00+00:00</time>
        <ele>1364.0</ele>
      </trkpt>
      <trkpt lat="47.627439" lon="14.36193">
        <time>1970-01-01T00:00:00+00:00</time>
        <ele>1350.0</ele>
      </trkpt>
      <trkpt lat="47.6274" lon="14.361843">
        <time>1970-01-01T00:00:00+00:00</time>
        <ele>1351.0</ele>
      </trkpt>
      <trkpt lat="47.627353" lon="14.361927">
        <time>1970-01-01T00:00:00+00:00</time>
        <ele>1346.0</ele>
      </trkpt>
      <trkpt lat="47.627327" lon="14.361867">
        <time>1970-01-01T00:00:00+00:00</time>
        <ele>1347.0</ele>
      </trkpt>
      <trkpt lat="47.627271" lon="14.361985">
        <time>1970-01-01T00:00:00+00:00</time>
        <ele>1342.0</ele>
      </trkpt>
      <trkpt lat="47.627265" lon="14.362068">
        <time>1970-01-01T00:00:00+00:00</time>
        <ele>1339.0</ele>
      </trkpt>
      <trkpt lat="47.627301" lon="14.362323">
        <time>1970-01-01T00:00:00+00:00</time>
        <ele>1334.0</ele>
      </trkpt>
      <trkpt lat="47.627158" lon="14.362242">
        <time>1970-01-01T00:00:00+00:00</time>
        <ele>1329.0</ele>
      </trkpt>
      <trkpt lat="47.627137" lon="14.362261">
        <time>1970-01-01T00:00:00+00:00</time>
        <ele>1328.0</ele>
      </trkpt>
      <trkpt lat="47.627073" lon="14.362194">
        <time>1970-01-01T00:00:00+00:00</time>
        <ele>1326.0</ele>
      </trkpt>
      <trkpt lat="47.627066" lon="14.362236">
        <time>1970-01-01T00:00:00+00:00</time>
        <ele>1325.0</ele>
      </trkpt>
      <trkpt lat="47.62708" lon="14.3623">
        <time>1970-01-01T00:00:00+00:00</time>
        <ele>1324.0</ele>
      </trkpt>
      <trkpt lat="47.627063" lon="14.362313">
        <time>1970-01-01T00:00:00+00:00</time>
        <ele>1323.0</ele>
      </trkpt>
      <trkpt lat="47.627005" lon="14.362282">
        <time>1970-01-01T00:00:00+00:00</time>
        <ele>1321.0</ele>
      </trkpt>
      <trkpt lat="47.626927" lon="14.362183">
        <time>1970-01-01T00:00:00+00:00</time>
        <ele>1319.0</ele>
      </trkpt>
      <trkpt lat="47.626778" lon="14.362158">
        <time>1970-01-01T00:00:00+00:00</time>
        <ele>1314.0</ele>
      </trkpt>
      <trkpt lat="47.62668" lon="14.362198">
        <time>1970-01-01T00:00:00+00:00</time>
        <ele>1309.0</ele>
      </trkpt>
      <trkpt lat="47.626609" lon="14.362261">
        <time>1970-01-01T00:00:00+00:00</time>
        <ele>1304.0</ele>
      </trkpt>
      <trkpt lat="47.626531" lon="14.362276">
        <time>1970-01-01T00:00:00+00:00</time>
        <ele>1300.0</ele>
      </trkpt>
      <trkpt lat="47.626515" lon="14.362373">
        <time>1970-01-01T00:00:00+00:00</time>
        <ele>1298.0</ele>
      </trkpt>
      <trkpt lat="47.626531" lon="14.362446">
        <time>1970-01-01T00:00:00+00:00</time>
        <ele>1298.0</ele>
      </trkpt>
      <trkpt lat="47.626512" lon="14.362498">
        <time>1970-01-01T00:00:00+00:00</time>
        <ele>1296.0</ele>
      </trkpt>
      <trkpt lat="47.626467" lon="14.362458">
        <time>1970-01-01T00:00:00+00:00</time>
        <ele>1295.0</ele>
      </trkpt>
      <trkpt lat="47.626427" lon="14.362734">
        <time>1970-01-01T00:00:00+00:00</time>
        <ele>1288.0</ele>
      </trkpt>
      <trkpt lat="47.626389" lon="14.362684">
        <time>1970-01-01T00:00:00+00:00</time>
        <ele>1287.0</ele>
      </trkpt>
      <trkpt lat="47.626363" lon="14.362693">
        <time>1970-01-01T00:00:00+00:00</time>
        <ele>1286.0</ele>
      </trkpt>
      <trkpt lat="47.626278" lon="14.362634">
        <time>1970-01-01T00:00:00+00:00</time>
        <ele>1284.0</ele>
      </trkpt>
      <trkpt lat="47.626258" lon="14.36267">
        <time>1970-01-01T00:00:00+00:00</time>
        <ele>1283.0</ele>
      </trkpt>
      <trkpt lat="47.626207" lon="14.362685">
        <time>1970-01-01T00:00:00+00:00</time>
        <ele>1281.0</ele>
      </trkpt>
      <trkpt lat="47.626043" lon="14.362882">
        <time>1970-01-01T00:00:00+00:00</time>
        <ele>1274.0</ele>
      </trkpt>
      <trkpt lat="47.625803" lon="14.36295">
        <time>1970-01-01T00:00:00+00:00</time>
        <ele>1264.0</ele>
      </trkpt>
      <trkpt lat="47.62559" lon="14.363378">
        <time>1970-01-01T00:00:00+00:00</time>
        <ele>1255.0</ele>
      </trkpt>
      <trkpt lat="47.625529" lon="14.363442">
        <time>1970-01-01T00:00:00+00:00</time>
        <ele>1252.0</ele>
      </trkpt>
      <trkpt lat="47.625517" lon="14.363505">
        <time>1970-01-01T00:00:00+00:00</time>
        <ele>1251.0</ele>
      </trkpt>
      <trkpt lat="47.625476" lon="14.363518">
        <time>1970-01-01T00:00:00+00:00</time>
        <ele>1249.0</ele>
      </trkpt>
      <trkpt lat="47.625349" lon="14.363822">
        <time>1970-01-01T00:00:00+00:00</time>
        <ele>1243.0</ele>
      </trkpt>
      <trkpt lat="47.625108" lon="14.363805">
        <time>1970-01-01T00:00:00+00:00</time>
        <ele>1235.0</ele>
      </trkpt>
      <trkpt lat="47.624932" lon="14.363872">
        <time>1970-01-01T00:00:00+00:00</time>
        <ele>1228.0</ele>
      </trkpt>
      <trkpt lat="47.624847" lon="14.363871">
        <time>1970-01-01T00:00:00+00:00</time>
        <ele>1225.0</ele>
      </trkpt>
      <trkpt lat="47.624696" lon="14.363988">
        <time>1970-01-01T00:00:00+00:00</time>
        <ele>1219.0</ele>
      </trkpt>
      <trkpt lat="47.624658" lon="14.364082">
        <time>1970-01-01T00:00:00+00:00</time>
        <ele>1217.0</ele>
      </trkpt>
      <trkpt lat="47.62462" lon="14.364063">
        <time>1970-01-01T00:00:00+00:00</time>
        <ele>1216.0</ele>
      </trkpt>
      <trkpt lat="47.624594" lon="14.363929">
        <time>1970-01-01T00:00:00+00:00</time>
        <ele>1216.0</ele>
      </trkpt>
      <trkpt lat="47.624615" lon="14.363699">
        <time>1970-01-01T00:00:00+00:00</time>
        <ele>1215.0</ele>
      </trkpt>
      <trkpt lat="47.624668" lon="14.363419">
        <time>1970-01-01T00:00:00+00:00</time>
        <ele>1214.0</ele>
      </trkpt>
      <trkpt lat="47.624666" lon="14.363213">
        <time>1970-01-01T00:00:00+00:00</time>
        <ele>1211.0</ele>
      </trkpt>
      <trkpt lat="47.624578" lon="14.362823">
        <time>1970-01-01T00:00:00+00:00</time>
        <ele>1203.0</ele>
      </trkpt>
      <trkpt lat="47.624434" lon="14.36243">
        <time>1970-01-01T00:00:00+00:00</time>
        <ele>1195.0</ele>
      </trkpt>
      <trkpt lat="47.624328" lon="14.362222">
        <time>1970-01-01T00:00:00+00:00</time>
        <ele>1190.0</ele>
      </trkpt>
      <trkpt lat="47.62426" lon="14.362033">
        <time>1970-01-01T00:00:00+00:00</time>
        <ele>1187.0</ele>
      </trkpt>
      <trkpt lat="47.624252" lon="14.361745">
        <time>1970-01-01T00:00:00+00:00</time>
        <ele>1189.0</ele>
      </trkpt>
      <trkpt lat="47.624162" lon="14.361324">
        <time>1970-01-01T00:00:00+00:00</time>
        <ele>1185.0</ele>
      </trkpt>
      <trkpt lat="47.62409" lon="14.36112">
        <time>1970-01-01T00:00:00+00:00</time>
        <ele>1181.0</ele>
      </trkpt>
      <trkpt lat="47.623996" lon="14.360912">
        <time>1970-01-01T00:00:00+00:00</time>
        <ele>1178.0</ele>
      </trkpt>
      <trkpt lat="47.623693" lon="14.360781">
        <time>1970-01-01T00:00:00+00:00</time>
        <ele>1168.0</ele>
      </trkpt>
      <trkpt lat="47.623622" lon="14.360715">
        <time>1970-01-01T00:00:00+00:00</time>
        <ele>1168.0</ele>
      </trkpt>
      <trkpt lat="47.623447" lon="14.36048">
        <time>1970-01-01T00:00:00+00:00</time>
        <ele>1167.0</ele>
      </trkpt>
      <trkpt lat="47.623222" lon="14.360243">
        <time>1970-01-01T00:00:00+00:00</time>
        <ele>1162.0</ele>
      </trkpt>
      <trkpt lat="47.622992" lon="14.360081">
        <time>1970-01-01T00:00:00+00:00</time>
        <ele>1158.0</ele>
      </trkpt>
      <trkpt lat="47.622776" lon="14.359859">
        <time>1970-01-01T00:00:00+00:00</time>
        <ele>1155.0</ele>
      </trkpt>
      <trkpt lat="47.622532" lon="14.359788">
        <time>1970-01-01T00:00:00+00:00</time>
        <ele>1152.0</ele>
      </trkpt>
      <trkpt lat="47.622284" lon="14.359837">
        <time>1970-01-01T00:00:00+00:00</time>
        <ele>1148.0</ele>
      </trkpt>
      <trkpt lat="47.622105" lon="14.360023">
        <time>1970-01-01T00:00:00+00:00</time>
        <ele>1143.0</ele>
      </trkpt>
      <trkpt lat="47.621669" lon="14.360233">
        <time>1970-01-01T00:00:00+00:00</time>
        <ele>1135.0</ele>
      </trkpt>
      <trkpt lat="47.621262" lon="14.360228">
        <time>1970-01-01T00:00:00+00:00</time>
        <ele>1130.0</ele>
      </trkpt>
      <trkpt lat="47.621022" lon="14.360309">
        <time>1970-01-01T00:00:00+00:00</time>
        <ele>1125.0</ele>
      </trkpt>
      <trkpt lat="47.620722" lon="14.360514">
        <time>1970-01-01T00:00:00+00:00</time>
        <ele>1117.0</ele>
      </trkpt>
      <trkpt lat="47.620522" lon="14.36057">
        <time>1970-01-01T00:00:00+00:00</time>
        <ele>1114.0</ele>
      </trkpt>
      <trkpt lat="47.620376" lon="14.360521">
        <time>1970-01-01T00:00:00+00:00</time>
        <ele>1112.0</ele>
      </trkpt>
      <trkpt lat="47.620257" lon="14.360479">
        <time>1970-01-01T00:00:00+00:00</time>
        <ele>1109.0</ele>
      </trkpt>
      <trkpt lat="47.620221" lon="14.360421">
        <time>1970-01-01T00:00:00+00:00</time>
        <ele>1109.0</ele>
      </trkpt>
      <trkpt lat="47.620164" lon="14.360264">
        <time>1970-01-01T00:00:00+00:00</time>
        <ele>1108.0</ele>
      </trkpt>
      <trkpt lat="47.620028" lon="14.360106">
        <time>1970-01-01T00:00:00+00:00</time>
        <ele>1106.0</ele>
      </trkpt>
      <trkpt lat="47.619953" lon="14.360073">
        <time>1970-01-01T00:00:00+00:00</time>
        <ele>1105.0</ele>
      </trkpt>
      <trkpt lat="47.619697" lon="14.360048">
        <time>1970-01-01T00:00:00+00:00</time>
        <ele>1096.0</ele>
      </trkpt>
      <trkpt lat="47.619614" lon="14.359988">
        <time>1970-01-01T00:00:00+00:00</time>
        <ele>1095.0</ele>
      </trkpt>
      <trkpt lat="47.619505" lon="14.359765">
        <time>1970-01-01T00:00:00+00:00</time>
        <ele>1098.0</ele>
      </trkpt>
      <trkpt lat="47.619467" lon="14.359748">
        <time>1970-01-01T00:00:00+00:00</time>
        <ele>1099.0</ele>
      </trkpt>
      <trkpt lat="47.619429" lon="14.359773">
        <time>1970-01-01T00:00:00+00:00</time>
        <ele>1098.0</ele>
      </trkpt>
      <trkpt lat="47.619386" lon="14.35976">
        <time>1970-01-01T00:00:00+00:00</time>
        <ele>1098.0</ele>
      </trkpt>
      <trkpt lat="47.619338" lon="14.359788">
        <time>1970-01-01T00:00:00+00:00</time>
        <ele>1097.0</ele>
      </trkpt>
      <trkpt lat="47.619223" lon="14.360228">
        <time>1970-01-01T00:00:00+00:00</time>
        <ele>1089.0</ele>
      </trkpt>
      <trkpt lat="47.619051" lon="14.36053">
        <time>1970-01-01T00:00:00+00:00</time>
        <ele>1083.0</ele>
      </trkpt>
      <trkpt lat="47.618879" lon="14.360697">
        <time>1970-01-01T00:00:00+00:00</time>
        <ele>1078.0</ele>
      </trkpt>
      <trkpt lat="47.618423" lon="14.360786">
        <time>1970-01-01T00:00:00+00:00</time>
        <ele>1075.0</ele>
      </trkpt>
      <trkpt lat="47.617209" lon="14.361267">
        <time>1970-01-01T00:00:00+00:00</time>
        <ele>1052.0</ele>
      </trkpt>
      <trkpt lat="47.61686" lon="14.361287">
        <time>1970-01-01T00:00:00+00:00</time>
        <ele>1049.0</ele>
      </trkpt>
      <trkpt lat="47.616136" lon="14.361572">
        <time>1970-01-01T00:00:00+00:00</time>
        <ele>1041.0</ele>
      </trkpt>
      <trkpt lat="47.615976" lon="14.36157">
        <time>1970-01-01T00:00:00+00:00</time>
        <ele>1038.0</ele>
      </trkpt>
      <trkpt lat="47.615789" lon="14.36146">
        <time>1970-01-01T00:00:00+00:00</time>
        <ele>1034.0</ele>
      </trkpt>
      <trkpt lat="47.615336" lon="14.360845">
        <time>1970-01-01T00:00:00+00:00</time>
        <ele>1027.0</ele>
      </trkpt>
      <trkpt lat="47.615192" lon="14.360657">
        <time>1970-01-01T00:00:00+00:00</time>
        <ele>1028.0</ele>
      </trkpt>
      <trkpt lat="47.615076" lon="14.360545">
        <time>1970-01-01T00:00:00+00:00</time>
        <ele>1027.0</ele>
      </trkpt>
    </trkseg>
  </trk>
</gpx>
